Regional Weather Roundup
Issued by NWS

Home | Current Version | Previous Version | Graphics & Text | Print | Product List | Glossary Off
Versions: 1 2 3 4 5 6 7 8 9 10 11 12 13 14 15 16 17 18 19 20 21 22 23 24 25 26 27 28 29 30 31 32 33 34 35 36 37 38 39 40 41 42 43 44 45 46 47 48 49 50

000
ASUS43 KTOP 291008
RWRKS

WEATHER ROUNDUP FOR KANSAS
NATIONAL WEATHER SERVICE GOODLAND KS
500 AM CDT TUE JUL 29 2014

NOTE:  "FAIR" INDICATES FEW OR NO CLOUDS BELOW 12,000 FEET WITH NO
SIGNIFICANT WEATHER AND/OR OBSTRUCTIONS TO VISIBILITY.

KSZ001>006-013>018-027>032-041>047-291100-
NORTHWEST KANSAS

CITY           SKY/WX    TMP DP  RH WIND       PRES   REMARKS
GOODLAND       PTCLDY    61  58  90 S7        30.21F
HAYS           CLEAR     63  54  72 E9        30.19F
HILL CITY      CLEAR     61  55  81 E6        30.20S
RUSSELL        CLEAR     61  55  81 E9        30.18F
$$

KSZ061>065-074>080-084>089-291100-
SOUTHWEST KANSAS

CITY           SKY/WX    TMP DP  RH WIND       PRES   REMARKS
DODGE CITY     CLEAR     62  56  80 SW6       30.20F
ELKHART          N/A     63  59  87 S15         N/A
GARDEN CITY    PTCLDY    62  58  86 S6        30.20F
GREAT BEND     CLEAR     64  55  72 E7        30.18S
LIBERAL        MOCLDY    64  55  72 S6        30.22F
PRATT          PTCLDY    68  55  64 E5        30.19S
$$

KSZ066>073-081>083-090>101-291100-
SOUTHEAST KANSAS

CITY           SKY/WX    TMP DP  RH WIND       PRES   REMARKS
CHANUTE        MOCLDY    63  59  87 CALM      30.17S
COFFEYVILLE    PTCLDY    63  60  90 N5        30.16R
HUTCHINSON     CLEAR     62  55  77 E6        30.19S
MEDICINE LODGE   N/A     62  60  93 CALM      30.16S
NEWTON         CLEAR     63  52  67 E5        30.22S
PARSONS        PTCLDY    61  58  90 CALM      30.17S
WICHITA INTL   PTCLDY    67  56  67 E8        30.17F
WICHITA JABRA  CLEAR     61  57  87 E5        30.18S
WICHITA MCCONL CLEAR     66  59  76 E6        30.18S
WINFIELD       CLEAR     67  58  72 E5        30.18S
$$

KSZ007>012-019>026-033>040-048>060-102>105-291100-
NORTHEAST KANSAS

CITY           SKY/WX    TMP DP  RH WIND       PRES   REMARKS
CONCORDIA      CLOUDY    65  58  78 CALM      30.20S
EMPORIA        MOCLDY    62  58  86 CALM      30.18S
LAWRENCE       CLEAR     56  53  90 NW6       30.17S
MANHATTAN      MOCLDY    64  57  78 CALM      30.18F
MARYSVILLE     CLOUDY    61  59  94 CALM      30.19S
OLATHE IND     CLEAR     58  56  93 CALM      30.17S
OLATHE EXE     CLEAR     61  58  90 CALM      30.16S
SALINA         PTCLDY    65  55  70 CALM      30.20R
TOPEKA BILLARD MOCLDY    60  58  92 CALM      30.18S
TOPEKA FORBES  MOCLDY    61  56  83 CALM      30.18R
$$


USA.gov is the U.S. government's official web portal to all federal, state and local government web resources and services.